User: anonymous   Login
Location: Moonridge Observatory
(39.2268°N, 77.7914°W)
Time: 03:33:15
(UTC-05:00)
Language:

CZ-2C R/B - Orbit

View from above orbital plane
View from above orbital plane
View from above satellite
View from above satellite

Ground track
Ground track

The orbit data is extracted from the following two-line orbital elements,

1 28480U 04046B   15062.46293687  .00000458  00000-0  18962-3 0  9991
2 28480 098.1216 203.9988 0142547 174.7550 230.4306 14.25457356535027
Epoch (UTC): 03 March 2015 11:06:37
Eccentricity: 0.0142547
inclination: 98.1216°
perigee height: 704 km
apogee height: 909 km
right ascension of ascending node: 203.9988°
argument of perigee: 174.7550°
revolutions per day: 14.25457356
mean anomaly at epoch: 230.4306°
orbit number at epoch: 53502

The dashed part of the orbit path shows where the satellite is in the earth's shadow,  

DLR